This is the latest recevied weather packets stored in our database for station/object NN5DX-13. If no packets are shown the sender has not sent any weather packets the latest 10 day(s).
| Time | Temp. | Humidity | Pressure | Rain* | Wind** | Luminosity | Snow |
|---|---|---|---|---|---|---|---|
| 1787666720 | 28.33° C | 38% | 1018.7 hPa | 0 mm | - | - | - |
| 1787666420 | 27.78° C | 40% | 1018.6 hPa | 0 mm | - | - | - |
| 1787666120 | 27.22° C | 40% | 1018.3 hPa | 0 mm | - | - | - |
| 1787665821 | 26.67° C | 41% | 1018.4 hPa | 0 mm | - | - | - |
| 1787665521 | 26.11° C | 42% | 1018.2 hPa | 0 mm | - | - | - |
| 1787665220 | 25.56° C | 43% | 1018.1 hPa | 0 mm | - | - | - |
| 1787664922 | 25° C | 43% | 1018 hPa | 0 mm | - | - | - |
| 1787664621 | 25° C | 44% | 1018.1 hPa | 0 mm | - | - | - |
| 1787664321 | 24.44° C | 45% | 1018.1 hPa | 0 mm | - | - | - |
| 1787664020 | 23.89° C | 45% | 1018.2 hPa | 0 mm | - | - | - |
| 1787663721 | 23.89° C | 46% | 1018.1 hPa | 0 mm | - | - | - |
| 1787663420 | 23.33° C | 46% | 1018.1 hPa | 0 mm | - | - | - |
| 1787663121 | 23.33° C | 47% | 1018 hPa | 0 mm | - | - | - |
| 1787662821 | 22.78° C | 49% | 1017.7 hPa | 0 mm | - | - | - |
| 1787662521 | 21.67° C | 51% | 1017.5 hPa | 0 mm | - | - | - |
| 1787662220 | 21.11° C | 52% | 1017.7 hPa | 0 mm | - | - | - |
| 1787661920 | 20.56° C | 53% | 1017.5 hPa | 0 mm | - | - | - |
| 1787661620 | 20.56° C | 54% | 1017.3 hPa | 0 mm | - | - | - |
| 1787661320 | 20° C | 55% | 1017.2 hPa | 0 mm | - | - | - |
| 1787661021 | 20° C | 54% | 1017.1 hPa | 0 mm | - | - | - |
| 1787660721 | 20.56° C | 53% | 1017.1 hPa | 0 mm | - | - | - |
| 1787660421 | 20.56° C | 52% | 1017.2 hPa | 0 mm | - | - | - |
| 1787660120 | 21.11° C | 52% | 1017.2 hPa | 0 mm | - | - | - |
| 1787659821 | 21.11° C | 52% | 1017.2 hPa | 0 mm | - | - | - |
| 1787659520 | 21.11° C | 51% | 1017.1 hPa | 0 mm | - | - | - |
* Rain latest hour (hover to see other rain measurements)
** Current wind speed in m/s (hover to see current wind gust speed)